Location: Unspecified
(0.0000°N, 0.0000°E)
Time: 11:07:38
(UTC+00:00)

FO-29 - Visible Passes

Search period start: 15 December 2019 00:00
Search period end: 25 December 2019 00:00
Orbit: 800 x 1322 km, 98.6° (Epoch: 14 December)

Date Brightness Start Highest point End Pass type
(mag) Time Alt. Az. Time Alt. Az. Time Alt. Az.
15 Dec 12.1 01:57:50 10° SSE 01:59:36 18° SSE 01:59:36 18° SSE visible
16 Dec 11.8 02:48:08 10° S 02:50:17 19° SSW 02:50:17 19° SSW visible
17 Dec 12.2 01:53:02 10° SSE 01:54:29 17° SSE 01:54:29 17° SSE visible
18 Dec 11.8 02:43:11 10° S 02:45:10 19° S 02:45:10 19° S visible
19 Dec 12.3 01:48:15 10° SSE 01:49:22 15° SSE 01:49:22 15° SSE visible
20 Dec 11.9 02:38:15 10° S 02:40:02 18° S 02:40:02 18° S visible
21 Dec 12.4 01:43:28 10° SSE 01:44:14 13° SSE 01:44:14 13° SSE visible
22 Dec 12.0 02:33:19 10° S 02:34:53 17° S 02:34:53 17° S visible
23 Dec 12.4 01:38:43 10° SSE 01:39:04 11° SSE 01:39:04 11° SSE visible
23 Dec 12.1 03:25:31 10° SW 03:25:33 10° SW 03:25:33 10° SW visible
24 Dec 12.0 02:28:24 10° S 02:29:43 16° S 02:29:43 16° S visible
